timestamp,wind_dir_avg,wind_spd_avg,wind_spd_max_dir,wind_spd_gust,battery_voltage,lat,long
2023-10-05 00:04:01+00:00,16.0,6.22,13.0,6.94,12.41,47.59359,-54.27349
2023-10-05 00:14:01+00:00,20.0,6.34,23.0,7.5,12.41,47.59359,-54.27349
2023-10-05 00:24:01+00:00,19.0,6.67,23.0,8.13,12.41,47.59359,-54.27349
2023-10-05 00:34:01+00:00,16.0,7.09,13.0,8.4,12.41,47.59359,-54.27349
2023-10-05 00:44:01+00:00,19.0,7.07,14.0,8.83,12.41,47.59359,-54.27349
2023-10-05 00:54:01+00:00,21.0,7.66,21.0,8.89,12.41,47.59359,-54.27349
2023-10-05 01:04:01+00:00,10.0,5.96,14.0,8.98,12.41,47.59359,-54.27349
2023-10-05 01:14:00+00:00,18.0,6.67,17.0,7.95,12.41,47.59359,-54.27349
2023-10-05 01:24:00+00:00,23.0,6.89,26.0,9.11,12.41,47.59359,-54.27349
2023-10-05 01:34:00+00:00,32.0,5.55,19.0,6.39,12.41,47.59359,-54.27349
2023-10-05 01:44:00+00:00,26.0,5.81,26.0,6.5,12.41,47.59359,-54.27349
2023-10-05 01:54:00+00:00,24.0,5.57,27.0,6.58,12.41,47.59359,-54.27349
2023-10-05 02:04:00+00:00,25.0,5.99,19.0,7.08,12.41,47.59359,-54.27349
2023-10-05 02:14:01+00:00,24.0,6.21,21.0,7.37,12.41,47.59359,-54.27349
2023-10-05 02:24:01+00:00,28.0,5.81,33.0,7.41,12.41,47.59359,-54.27349
2023-10-05 02:34:01+00:00,35.0,5.86,37.0,6.75,12.41,47.59359,-54.27349
2023-10-05 02:44:01+00:00,359.0,3.59,2.0,4.34,12.41,47.59359,-54.27349
2023-10-05 02:54:01+00:00,20.0,4.35,20.0,5.18,12.41,47.59359,-54.27349
2023-10-05 03:04:01+00:00,16.0,3.47,35.0,4.41,12.41,47.59359,-54.27349
2023-10-05 03:14:01+00:00,9.0,3.68,15.0,4.3,12.33,47.59359,-54.27349
2023-10-05 03:24:01+00:00,12.0,5.07,13.0,6.05,12.33,47.59359,-54.27349
2023-10-05 03:34:01+00:00,12.0,4.19,18.0,4.83,12.33,47.59359,-54.27349
2023-10-05 03:44:01+00:00,2.0,4.23,3.0,4.99,12.33,47.59359,-54.27349
2023-10-05 03:54:01+00:00,6.0,3.5,0.0,4.5,12.33,47.59359,-54.27349
2023-10-05 04:04:01+00:00,356.0,4.27,354.0,4.92,12.33,47.59359,-54.27349
2023-10-05 04:14:00+00:00,0.0,3.88,4.0,5.78,12.33,47.59359,-54.27349
2023-10-05 04:24:00+00:00,5.0,4.02,5.0,5.04,12.33,47.59359,-54.27349
2023-10-05 04:34:00+00:00,346.0,4.01,343.0,4.99,12.33,47.59359,-54.27349
2023-10-05 04:44:00+00:00,338.0,4.24,340.0,4.91,12.33,47.59359,-54.27349
2023-10-05 04:54:00+00:00,320.0,5.02,315.0,5.87,12.33,47.59359,-54.27349
2023-10-05 05:04:00+00:00,330.0,4.92,331.0,5.57,12.33,47.59359,-54.27349
2023-10-05 05:14:00+00:00,332.0,5.9,328.0,6.59,12.33,47.59359,-54.27349
2023-10-05 05:24:00+00:00,335.0,6.77,327.0,7.57,12.33,47.59359,-54.27349
2023-10-05 05:34:00+00:00,331.0,6.1,334.0,6.66,12.33,47.59359,-54.27349
2023-10-05 05:44:00+00:00,340.0,6.46,339.0,7.35,12.33,47.59359,-54.27349
2023-10-05 05:54:00+00:00,336.0,6.34,335.0,7.28,12.33,47.59359,-54.27349
2023-10-05 06:04:00+00:00,332.0,6.39,337.0,7.16,12.33,47.59359,-54.27349
2023-10-05 06:14:01+00:00,341.0,6.09,339.0,6.85,12.33,47.59359,-54.27349
2023-10-05 06:24:01+00:00,330.0,6.46,328.0,7.22,12.33,47.59359,-54.27349
2023-10-05 06:34:01+00:00,330.0,6.64,327.0,7.13,12.33,47.59359,-54.27349
2023-10-05 06:44:01+00:00,339.0,5.95,339.0,6.73,12.33,47.59359,-54.27349
2023-10-05 06:54:01+00:00,348.0,6.23,349.0,7.08,12.33,47.59359,-54.27349
2023-10-05 07:04:01+00:00,359.0,6.41,358.0,7.72,12.33,47.59359,-54.27349
2023-10-05 07:14:01+00:00,4.0,5.91,3.0,6.56,12.25,47.59359,-54.27349
2023-10-05 07:24:01+00:00,358.0,5.34,0.0,6.29,12.25,47.59359,-54.27349
2023-10-05 07:34:01+00:00,359.0,5.55,0.0,6.01,12.25,47.59359,-54.27349
2023-10-05 07:44:01+00:00,349.0,5.74,347.0,6.37,12.25,47.59359,-54.27349
2023-10-05 07:54:01+00:00,355.0,4.99,359.0,5.97,12.25,47.59359,-54.27349
2023-10-05 08:04:01+00:00,352.0,4.31,355.0,5.7,12.25,47.59359,-54.27349
2023-10-05 08:14:00+00:00,358.0,5.93,356.0,7.01,12.25,47.59359,-54.27349
2023-10-05 08:24:00+00:00,359.0,5.41,357.0,6.08,12.25,47.59359,-54.27349
2023-10-05 08:34:00+00:00,358.0,4.55,357.0,5.18,12.25,47.59359,-54.27349
2023-10-05 08:44:00+00:00,357.0,4.41,353.0,5.55,12.25,47.59359,-54.27349
2023-10-05 08:54:00+00:00,357.0,4.16,358.0,5.1,12.25,47.59359,-54.27349
2023-10-05 09:04:00+00:00,357.0,4.13,1.0,5.26,12.25,47.59359,-54.27349
2023-10-05 09:14:01+00:00,356.0,4.84,356.0,5.84,12.17,47.59359,-54.27349
2023-10-05 09:24:01+00:00,356.0,4.35,355.0,5.02,12.17,47.59359,-54.27349
2023-10-05 09:34:01+00:00,356.0,4.22,351.0,5.17,12.17,47.59359,-54.27349
2023-10-05 09:44:01+00:00,359.0,5.84,357.0,6.55,12.17,47.59359,-54.27349
2023-10-05 09:54:01+00:00,353.0,6.06,356.0,6.76,12.17,47.59359,-54.27349
2023-10-05 10:04:01+00:00,334.0,5.79,335.0,6.68,12.17,47.59359,-54.27349
2023-10-05 10:14:00+00:00,337.0,6.1,341.0,6.7,12.73,47.59359,-54.27349
2023-10-05 10:24:00+00:00,346.0,6.71,349.0,7.3,12.73,47.59359,-54.27349
2023-10-05 10:34:00+00:00,352.0,6.44,351.0,7.24,12.73,47.59359,-54.27349
2023-10-05 10:44:00+00:00,3.0,6.32,9.0,7.01,12.73,47.59359,-54.27349
2023-10-05 10:54:00+00:00,357.0,7.69,359.0,8.57,12.73,47.59359,-54.27349
2023-10-05 11:04:00+00:00,16.0,6.0,19.0,6.82,12.73,47.59359,-54.27349
2023-10-05 11:14:00+00:00,12.0,4.51,11.0,5.3,14.16,47.59359,-54.27349
2023-10-05 11:24:00+00:00,14.0,4.6,16.0,5.33,14.16,47.59359,-54.27349
2023-10-05 11:34:00+00:00,13.0,4.77,20.0,5.49,14.16,47.59359,-54.27349
2023-10-05 11:44:00+00:00,3.0,3.99,5.0,4.71,14.16,47.59359,-54.27349
2023-10-05 11:54:00+00:00,3.0,4.12,8.0,4.78,14.16,47.59359,-54.27349
2023-10-05 12:04:00+00:00,16.0,4.11,19.0,4.79,14.16,47.59359,-54.27349
2023-10-05 12:14:00+00:00,28.0,5.06,31.0,6.06,13.68,47.59359,-54.27349
2023-10-05 12:24:00+00:00,34.0,5.3,32.0,5.86,13.68,47.59359,-54.27349
2023-10-05 12:34:00+00:00,53.0,6.55,52.0,7.16,13.68,47.59359,-54.27349
2023-10-05 12:44:00+00:00,33.0,5.12,36.0,6.69,13.68,47.59359,-54.27349
2023-10-05 12:54:00+00:00,41.0,6.09,36.0,6.65,13.68,47.59359,-54.27349
2023-10-05 13:04:00+00:00,58.0,5.91,59.0,6.68,13.68,47.59359,-54.27349
2023-10-05 13:14:01+00:00,56.0,5.17,55.0,5.83,13.92,47.59359,-54.27349
2023-10-05 13:24:01+00:00,51.0,4.48,52.0,5.33,13.92,47.59359,-54.27349
2023-10-05 13:34:01+00:00,49.0,4.85,50.0,5.5,13.92,47.59359,-54.27349
2023-10-05 13:44:01+00:00,58.0,4.52,60.0,5.81,13.92,47.59359,-54.27349
2023-10-05 13:54:01+00:00,70.0,3.19,70.0,3.68,13.92,47.59359,-54.27349
2023-10-05 14:04:01+00:00,63.0,4.12,64.0,4.62,13.92,47.59359,-54.27349
2023-10-05 14:14:00+00:00,70.0,3.61,69.0,4.18,14.08,47.59359,-54.27349
2023-10-05 14:24:00+00:00,64.0,3.51,69.0,4.32,14.08,47.59359,-54.27349
2023-10-05 14:34:00+00:00,59.0,3.3,58.0,4.27,14.08,47.59359,-54.27349
2023-10-05 14:44:00+00:00,66.0,4.36,70.0,4.93,14.08,47.59359,-54.27349
2023-10-05 14:54:00+00:00,66.0,4.16,68.0,4.62,14.08,47.59359,-54.27349
2023-10-05 15:04:00+00:00,69.0,3.69,67.0,4.51,14.08,47.59359,-54.27349
2023-10-05 15:14:01+00:00,71.0,2.5,75.0,3.46,13.53,47.59359,-54.27349
2023-10-05 15:24:01+00:00,62.0,2.32,59.0,2.8,13.53,47.59359,-54.27349
2023-10-05 15:34:01+00:00,72.0,2.74,57.0,3.63,13.53,47.59359,-54.27349
2023-10-05 15:44:01+00:00,70.0,2.7,73.0,3.25,13.53,47.59359,-54.27349
2023-10-05 15:54:01+00:00,63.0,2.66,70.0,3.67,13.53,47.59359,-54.27349
2023-10-05 16:04:01+00:00,65.0,1.88,68.0,2.71,13.53,47.59359,-54.27349
2023-10-05 16:14:00+00:00,65.0,1.96,74.0,2.76,13.68,47.59359,-54.27349
2023-10-05 16:24:00+00:00,165.0,0.8,176.0,1.11,13.68,47.59359,-54.27349
2023-10-05 16:34:00+00:00,135.0,1.67,141.0,2.15,13.68,47.59359,-54.27349
2023-10-05 16:44:00+00:00,44.0,0.98,40.0,1.14,13.68,47.59359,-54.27349
2023-10-05 16:54:00+00:00,47.0,1.25,48.0,1.61,13.68,47.59359,-54.27349
2023-10-05 17:04:00+00:00,31.0,0.76,19.0,0.94,13.68,47.59359,-54.27349
2023-10-05 17:14:00+00:00,63.0,0.72,46.0,0.95,13.76,47.59359,-54.27349
2023-10-05 17:24:00+00:00,69.0,0.37,60.0,0.57,13.76,47.59359,-54.27349
2023-10-05 17:34:00+00:00,168.0,0.36,176.0,0.55,13.76,47.59359,-54.27349
2023-10-05 17:44:00+00:00,215.0,0.77,203.0,1.1,13.76,47.59359,-54.27349
2023-10-05 17:54:00+00:00,211.0,1.17,209.0,1.54,13.76,47.59359,-54.27349
2023-10-05 18:04:00+00:00,216.0,1.62,223.0,2.14,13.76,47.59359,-54.27349
2023-10-05 18:14:00+00:00,224.0,2.44,218.0,3.1,13.68,47.59359,-54.27349
2023-10-05 18:24:00+00:00,197.0,2.68,203.0,3.37,13.68,47.59359,-54.27349
2023-10-05 18:34:00+00:00,205.0,2.42,208.0,2.91,13.68,47.59359,-54.27349
2023-10-05 18:44:00+00:00,229.0,3.06,224.0,3.41,13.68,47.59359,-54.27349
2023-10-05 18:54:00+00:00,201.0,3.09,207.0,3.4,13.68,47.59359,-54.27349
2023-10-05 19:04:00+00:00,212.0,3.01,213.0,3.51,13.68,47.59359,-54.27349
2023-10-05 19:14:01+00:00,220.0,3.39,227.0,4.02,13.68,47.59359,-54.27349
2023-10-05 19:24:01+00:00,198.0,3.08,205.0,3.46,13.68,47.59359,-54.27349
2023-10-05 19:34:01+00:00,204.0,3.01,204.0,3.46,13.68,47.59359,-54.27349
2023-10-05 19:44:01+00:00,204.0,2.54,209.0,2.92,13.68,47.59359,-54.27349
2023-10-05 19:54:01+00:00,214.0,3.0,217.0,3.48,13.68,47.59359,-54.27349
2023-10-05 20:04:01+00:00,227.0,3.37,219.0,4.45,13.68,47.59359,-54.27349
2023-10-05 20:14:01+00:00,206.0,2.97,209.0,3.4,13.44,47.59359,-54.27349
2023-10-05 20:24:01+00:00,219.0,2.89,216.0,3.32,13.44,47.59359,-54.27349
2023-10-05 20:34:01+00:00,199.0,3.06,212.0,3.68,13.44,47.59359,-54.27349
2023-10-05 20:44:01+00:00,222.0,3.03,218.0,3.34,13.44,47.59359,-54.27349
2023-10-05 20:54:01+00:00,219.0,3.25,215.0,3.59,13.44,47.59359,-54.27349
2023-10-05 21:04:01+00:00,216.0,3.35,213.0,3.72,13.44,47.59359,-54.27349
2023-10-05 21:14:00+00:00,216.0,3.62,213.0,4.06,12.89,47.59359,-54.27349
2023-10-05 21:24:00+00:00,216.0,4.47,213.0,5.11,12.89,47.59359,-54.27349
2023-10-05 21:34:00+00:00,215.0,4.07,209.0,5.01,12.89,47.59359,-54.27349
2023-10-05 21:44:00+00:00,223.0,4.56,221.0,5.11,12.89,47.59359,-54.27349
2023-10-05 21:54:00+00:00,229.0,5.36,228.0,6.32,12.89,47.59359,-54.27349
2023-10-05 22:04:00+00:00,238.0,6.15,238.0,6.46,12.89,47.59359,-54.27349
2023-10-05 22:14:00+00:00,240.0,5.58,240.0,6.27,12.49,47.59359,-54.27349
2023-10-05 22:24:00+00:00,236.0,6.12,238.0,6.67,12.49,47.59359,-54.27349
2023-10-05 22:34:00+00:00,249.0,5.77,250.0,6.41,12.49,47.59359,-54.27349
2023-10-05 22:44:00+00:00,242.0,6.07,244.0,6.52,12.49,47.59359,-54.27349
2023-10-05 22:54:00+00:00,232.0,5.61,230.0,6.23,12.49,47.59359,-54.27349
2023-10-05 23:04:00+00:00,241.0,6.17,243.0,7.04,12.49,47.59359,-54.27349
2023-10-05 23:14:01+00:00,247.0,5.54,242.0,6.02,12.41,47.59359,-54.27349
2023-10-05 23:24:01+00:00,243.0,4.8,239.0,5.4,12.41,47.59359,-54.27349
2023-10-05 23:34:01+00:00,250.0,4.91,251.0,5.27,12.41,47.59359,-54.27349
2023-10-05 23:44:01+00:00,246.0,5.71,244.0,6.25,12.41,47.59359,-54.27349
2023-10-05 23:54:01+00:00,244.0,5.4,242.0,6.39,12.41,47.59359,-54.27349
